Photometre #358[Standard_N] Brussels AOT

File : 20220825_358.hum

25/08/2022,05:43:16,TEMP=21.9,BA=5.68,STAT.A=Abs.,ExtBa=13.08
25/08/2022,05:47:20,TEMP=22.3,BA=5.68,STAT.A=Abs.,ExtBa=12.91
25/08/2022,05:52:04,TEMP=22.8,BA=5.68,STAT.A=Abs.,ExtBa=12.89
25/08/2022,05:57:40,TEMP=23.1,BA=5.68,STAT.A=Abs.,ExtBa=12.87
25/08/2022,06:04:23,TEMP=23.6,BA=5.68,STAT.A=Abs.,ExtBa=12.83
25/08/2022,06:12:38,TEMP=24.0,BA=5.68,STAT.A=Abs.,ExtBa=12.85
25/08/2022,06:23:00,TEMP=24.5,BA=5.68,STAT.B=Abs.,ExtBa=12.87
25/08/2022,06:29:49,TEMP=24.8,BA=5.68,STAT.A=Abs.,ExtBa=12.66
25/08/2022,06:33:26,TEMP=24.6,BA=5.44,STAT.A=Abs.,ExtBa=12.75
25/08/2022,06:39:38,TEMP=24.4,BA=5.44,STAT.A=Abs.,ExtBa=12.79
25/08/2022,06:46:38,TEMP=24.5,BA=5.52,STAT.A=Abs.,ExtBa=12.81
25/08/2022,06:54:39,TEMP=24.6,BA=5.68,STAT.C=Abs.,ExtBa=12.83
25/08/2022,07:05:50,TEMP=26.1,BA=5.32,STAT.A=Abs.,ExtBa=12.65
25/08/2022,07:14:46,TEMP=26.3,BA=5.68,STAT.A=Abs.,ExtBa=12.83
25/08/2022,07:27:43,TEMP=26.3,BA=5.68,STAT.A=Abs.,ExtBa=12.87
25/08/2022,07:43:30,TEMP=27.7,BA=5.68,STAT.A=Abs.,ExtBa=12.89
25/08/2022,08:03:19,TEMP=29.3,BA=5.68,STAT.B=Abs.,ExtBa=12.94
25/08/2022,08:15:26,TEMP=30.5,BA=5.68,STAT.D=Abs.,ExtBa=12.81
25/08/2022,08:30:26,TEMP=32.1,BA=5.68,STAT.D=Abs.,ExtBa=12.91
25/08/2022,08:45:28,TEMP=32.8,BA=5.68,STAT.F,ExtBa=12.92
25/08/2022,09:00:26,TEMP=33.5,BA=5.68,STAT.D=Abs.,ExtBa=12.80
25/08/2022,09:15:26,TEMP=34.4,BA=5.68,STAT.D=Abs.,ExtBa=12.91
25/08/2022,09:30:27,TEMP=35.4,BA=5.68,STAT.D=Abs.,ExtBa=12.94
25/08/2022,09:45:28,TEMP=35.8,BA=5.68,STAT.F,ExtBa=12.93
25/08/2022,10:00:27,TEMP=36.1,BA=5.68,STAT.D=Abs.,ExtBa=12.78
25/08/2022,10:15:27,TEMP=37.3,BA=5.68,STAT.D=Abs.,ExtBa=12.86
25/08/2022,10:30:27,TEMP=38.0,BA=5.68,STAT.D=Abs.,ExtBa=12.87
25/08/2022,10:45:28,TEMP=38.0,BA=5.68,STAT.F,ExtBa=12.88
25/08/2022,11:00:27,TEMP=37.6,BA=5.68,STAT.D=Abs.,ExtBa=12.81
25/08/2022,11:15:27,TEMP=37.6,BA=5.68,STAT.D=Abs.,ExtBa=12.89
25/08/2022,11:30:27,TEMP=38.0,BA=5.68,STAT.D=Abs.,ExtBa=12.93
25/08/2022,11:45:29,TEMP=37.0,BA=5.68,STAT.F,ExtBa=12.96
25/08/2022,12:00:27,TEMP=36.3,BA=5.68,STAT.D=Abs.,ExtBa=12.79
25/08/2022,12:15:27,TEMP=35.6,BA=5.68,STAT.D=Abs.,ExtBa=12.88
25/08/2022,12:30:27,TEMP=35.8,BA=5.68,STAT.D=Abs.,ExtBa=12.89
25/08/2022,12:45:28,TEMP=36.1,BA=5.68,STAT.F,ExtBa=12.91
25/08/2022,13:00:27,TEMP=35.4,BA=5.68,STAT.D=Abs.,ExtBa=12.94
25/08/2022,13:15:27,TEMP=36.0,BA=5.68,STAT.D=Abs.,ExtBa=12.96
25/08/2022,13:30:27,TEMP=34.7,BA=5.68,STAT.D=Abs.,ExtBa=12.96
25/08/2022,13:45:28,TEMP=34.0,BA=5.68,STAT.F,ExtBa=12.97
25/08/2022,14:00:26,TEMP=35.0,BA=5.68,STAT.D=Abs.,ExtBa=12.93
25/08/2022,14:15:26,TEMP=36.7,BA=5.68,STAT.D=Abs.,ExtBa=12.95
25/08/2022,14:30:26,TEMP=34.4,BA=5.68,STAT.D=Abs.,ExtBa=12.96
25/08/2022,14:45:28,TEMP=31.6,BA=5.68,STAT.F,ExtBa=12.96
25/08/2022,15:00:26,TEMP=30.3,BA=5.68,STAT.D=Abs.,ExtBa=12.99
25/08/2022,15:15:26,TEMP=30.6,BA=5.68,STAT.D=Abs.,ExtBa=12.95
25/08/2022,15:27:35,TEMP=31.3,BA=5.68,STAT.B=Abs.,ExtBa=12.94
25/08/2022,15:47:24,TEMP=30.6,BA=5.68,STAT.A=Abs.,ExtBa=12.88
25/08/2022,16:03:11,TEMP=29.8,BA=5.68,STAT.A=Abs.,ExtBa=12.93
25/08/2022,16:16:07,TEMP=29.4,BA=5.68,STAT.A=Abs.,ExtBa=12.92
25/08/2022,16:26:59,TEMP=29.0,BA=5.68,STAT.A=Abs.,ExtBa=12.89
25/08/2022,16:36:15,TEMP=28.4,BA=5.68,STAT.C=Abs.,ExtBa=12.89
25/08/2022,16:47:04,TEMP=28.1,BA=5.40,STAT.A=Abs.,ExtBa=12.67
25/08/2022,16:53:06,TEMP=27.7,BA=5.68,STAT.A=Abs.,ExtBa=12.76
25/08/2022,16:57:28,TEMP=27.4,BA=5.68,STAT.A=Abs.,ExtBa=12.76
25/08/2022,17:02:58,TEMP=27.0,BA=5.68,STAT.A=Abs.,ExtBa=12.77
25/08/2022,17:07:54,TEMP=26.7,BA=5.68,STAT.B=Abs.,ExtBa=12.77
25/08/2022,17:18:16,TEMP=26.1,BA=5.36,STAT.A=Abs.,ExtBa=12.73
25/08/2022,17:26:31,TEMP=25.6,BA=5.68,STAT.A=Abs.,ExtBa=12.78
25/08/2022,17:33:14,TEMP=25.3,BA=5.68,STAT.A=Abs.,ExtBa=12.75
25/08/2022,17:38:50,TEMP=25.0,BA=5.68,STAT.A=Abs.,ExtBa=12.77
25/08/2022,17:43:34,TEMP=24.9,BA=5.48,STAT.A=Abs.,ExtBa=12.76
25/08/2022,17:47:38,TEMP=24.8,BA=5.48,STAT.A=Abs.,ExtBa=12.74